Torna al catalogo

ASIASAT 9

AttivoComunicazioniGEO
NORAD 42942·PAYLOAD·🇸🇭 SH

Lanciato Sep 28, 2017 da Baikonur Cosmodrome

Loading…

TLE

AggiornatoSource: Space-Track

Epoca: Sep 14, 2026, 12:40 UTC

1 42942U 17057A   26257.52807537 -.00000368  00000-0  00000-0 0  9998
2 42942   0.0125 146.7486 0002094  25.1218 133.8542  1.00270682 32761

Traccia ASIASAT 9 in tempo reale con AllMySat

Download on the App Store